GW6311 Weather Reports


time (UTC)temp
C
wind
direction
speed
KPH
gust
KPH
rain 1hr
cm
rain 24hr
cm
rain mn
cm
humidity
%
barometer
mb
20260510095056 19 249 0.0 0.0 0.00 0.00 0.00 92 1013.4
20260510094555 19 249 0.0 0.0 0.00 0.00 0.00 92 1013.5
20260510094051 19 249 0.0 0.0 0.00 0.00 0.00 92 1013.5
20260510093547 20 249 0.0 0.0 0.00 0.00 0.00 91 1013.4
20260510093044 20 249 0.0 0.0 0.00 0.00 0.00 90 1013.6
20260510092541 20 249 0.0 0.0 0.00 0.00 0.00 90 1013.6
20260510092040 20 249 0.0 0.0 0.00 0.00 0.00 90 1013.6
20260510091538 20 249 0.0 0.0 0.00 0.00 0.00 90 1013.2
20260510091033 20 249 0.0 0.0 0.00 0.00 0.00 90 1013.4
20260510090531 20 249 0.0 0.0 0.00 0.00 0.00 90 1013.4
20260510090027 20 239 0.0 0.0 0.00 0.00 0.00 90 1013.2
20260510085526 20 238 0.0 0.0 0.00 0.00 0.00 90 1013.4
20260510085022 20 238 0.0 0.0 0.00 0.00 0.00 90 1013.1
20260510084520 20 238 0.0 0.0 0.00 0.00 0.00 90 1013.1
20260510084016 20 238 0.0 0.0 0.00 0.00 0.00 89 1013.0
20260510083513 20 238 0.0 0.0 0.00 0.00 0.00 89 1012.8
20260510083009 20 238 0.0 0.0 0.00 0.00 0.00 89 1012.8
20260510082507 20 238 0.0 0.0 0.00 0.00 0.00 88 1013.1
20260510082006 20 238 0.0 0.0 0.00 0.00 0.00 88 1013.2
20260510081502 20 238 0.0 0.0 0.00 0.00 0.00 88 1013.2
20260510080958 20 238 0.0 0.0 0.00 0.00 0.00 88 1013.1
20260510080456 20 238 0.0 0.0 0.00 0.00 0.00 89 1013.1
20260510075954 20 238 0.0 0.0 0.00 0.00 0.00 89 1013.0
20260510075451 20 238 0.0 0.0 0.00 0.00 0.00 89 1013.1
20260510074948 21 238 0.0 0.0 0.00 0.00 0.00 88 1013.2
20260510074445 21 238 0.0 0.0 0.00 0.00 0.00 88 1013.2
20260510073941 21 238 0.0 0.0 0.00 0.00 0.00 88 1013.2
20260510073437 21 238 0.0 0.0 0.00 0.00 0.00 87 1013.0
20260510072934 21 238 0.0 0.0 0.00 0.00 0.00 87 1013.3
20260510072431 21 238 0.0 0.0 0.00 0.00 0.00 87 1013.3
20260510071926 21 238 0.0 0.0 0.00 0.00 0.00 87 1013.2
20260510071423 21 238 0.0 0.0 0.00 0.00 0.00 87 1013.1
20260510070921 21 238 0.0 0.0 0.00 0.00 0.00 87 1013.0
20260510070418 21 239 0.0 0.0 0.00 0.00 0.00 87 1013.2
20260510065913 21 239 0.0 0.0 0.00 0.00 0.00 88 1013.1
20260510065410 21 238 0.0 0.0 0.00 0.00 0.00 88 1013.2
20260510064906 21 237 0.0 0.0 0.00 0.00 0.00 89 1013.4
20260510064404 21 245 0.0 0.0 0.00 0.00 0.00 89 1013.3
20260510063900 21 245 0.0 0.0 0.00 0.00 0.00 89 1013.3
20260510063357 21 245 0.0 0.0 0.00 0.00 0.00 89 1013.3
20260510062854 21 245 0.0 0.0 0.00 0.00 0.00 89 1013.3
20260510062349 21 245 0.0 0.0 0.00 0.00 0.00 89 1013.2
20260510061845 21 245 0.0 0.0 0.00 0.00 0.00 89 1013.2
20260510061342 21 245 0.0 0.0 0.00 0.00 0.00 89 1013.2
20260510060837 21 245 0.0 0.0 0.00 0.00 0.00 89 1013.3
20260510060335 21 245 0.0 0.0 0.00 0.00 0.00 89 1013.3
20260510055832 21 245 0.0 0.0 0.00 0.00 0.00 89 1013.5
20260510055331 21 245 0.0 0.0 0.00 0.00 0.00 89 1013.3
20260510054830 21 244 0.0 0.0 0.00 0.00 0.00 88 1013.2
20260510054326 21 244 0.0 0.0 0.00 0.00 0.00 88 1013.4
20260510053821 22 244 0.0 0.0 0.00 0.00 0.00 87 1013.2
20260510053317 22 244 0.0 0.0 0.00 0.00 0.00 86 1013.3
20260510052814 22 244 0.0 0.0 0.00 0.00 0.00 86 1013.2
20260510052309 22 244 0.0 0.0 0.00 0.00 0.00 86 1013.1
20260510051805 22 244 0.0 0.0 0.00 0.00 0.00 86 1013.2
20260510051302 21 244 0.0 0.0 0.00 0.00 0.00 87 1013.0
20260510050800 21 245 0.0 0.0 0.00 0.00 0.00 89 1013.0
20260510050256 21 245 0.0 0.0 0.00 0.00 0.00 88 1013.1
20260510045753 22 244 0.0 0.0 0.00 0.00 0.00 87 1013.1
20260510045250 22 244 0.0 0.0 0.00 0.00 0.00 84 1012.9
20260510044747 22 245 0.0 0.0 0.00 0.00 0.00 84 1012.9
20260510044244 22 245 0.0 0.0 0.00 0.00 0.00 83 1012.7
20260510043739 23 250 0.0 0.0 0.00 0.00 0.00 83 1012.9
20260510043237 23 250 0.0 0.0 0.00 0.00 0.00 83 1012.9
20260510042734 23 243 0.0 0.0 0.00 0.00 0.00 83 1012.7
20260510042229 22 243 0.0 0.0 0.00 0.00 0.00 83 1012.8
20260510041726 22 243 0.0 0.0 0.00 0.00 0.00 84 1012.7
20260510041224 22 243 0.0 0.0 0.00 0.00 0.00 85 1012.8
20260510040720 22 243 0.0 0.0 0.00 0.00 0.00 86 1012.7
20260510040217 22 243 0.0 0.0 0.00 0.00 0.00 87 1012.7
20260510035713 22 243 0.0 0.0 0.00 0.00 0.00 86 1012.6
20260510035209 23 243 0.0 0.0 0.00 0.00 0.00 85 1012.5
20260510034705 23 243 0.0 0.0 0.00 0.00 0.00 84 1012.7
20260510034202 23 243 0.0 0.0 0.00 0.00 0.00 84 1012.5
20260510033658 23 242 0.0 0.0 0.00 0.00 0.00 84 1012.6
20260510033157 23 242 0.0 0.0 0.00 0.00 0.00 84 1012.7
20260510032652 23 242 0.0 0.0 0.00 0.00 0.00 84 1012.5
20260510032148 23 242 0.0 0.0 0.00 0.00 0.00 82 1012.4
20260510031643 23 242 0.0 0.0 0.00 0.00 0.00 82 1012.4
20260510031141 23 242 0.0 0.0 0.00 0.00 0.00 81 1012.5
20260510030640 23 242 0.0 0.0 0.00 0.00 0.00 80 1012.4
20260510030138 24 242 0.0 0.0 0.00 0.00 0.00 79 1012.3
20260510025635 24 242 0.0 0.0 0.00 0.00 0.00 78 1012.3
20260510025132 25 242 0.0 0.0 0.00 0.00 0.00 76 1012.3
20260510024629 25 241 0.0 0.0 0.00 0.00 0.00 74 1012.1
20260510024126 25 241 0.0 0.0 0.00 0.00 0.00 73 1012.1
20260510023621 25 241 0.0 0.0 0.00 0.00 0.00 73 1012.1
20260510023119 25 241 0.0 0.0 0.00 0.00 0.00 73 1012.1
20260510022619 25 240 0.0 0.0 0.00 0.00 0.00 73 1011.9
20260510022114 25 238 0.0 0.0 0.00 0.00 0.00 72 1011.7
20260510021610 25 237 3.2 3.2 0.00 0.00 0.00 72 1011.6
20260510021108 25 242 0.0 0.0 0.00 0.00 0.00 73 1011.6
20260510020607 25 248 0.0 3.2 0.00 0.00 0.00 73 1011.7
20260510015559 26 242 0.0 0.0 0.00 0.00 0.00 73 1011.4
20260510015056 26 242 0.0 0.0 0.00 0.00 0.00 72 1011.2
20260510014551 26 241 0.0 0.0 0.00 0.00 0.00 71 1011.2
20260510014049 26 239 0.0 0.0 0.00 0.00 0.00 70 1011.1
20260510013544 26 238 0.0 3.2 0.00 0.00 0.00 70 1011.0
20260510013040 26 240 0.0 0.0 0.00 0.00 0.00 69 1011.0
20260510012539 27 236 0.0 0.0 0.00 0.00 0.00 68 1010.8
20260510012036 27 245 0.0 0.0 0.00 0.00 0.00 67 1010.9
20260510011536 27 239 0.0 0.0 0.00 0.00 0.00 67 1010.8
20260510011032 27 237 0.0 0.0 0.00 0.00 0.00 67 1010.8
20260510010529 27 242 0.0 0.0 0.00 0.00 0.00 67 1010.7
20260510010026 27 242 0.0 0.0 0.00 0.00 0.00 67 1010.6
20260510005521 27 242 0.0 0.0 0.00 0.00 0.00 67 1010.3
20260510005019 27 242 0.0 0.0 0.00 0.00 0.00 67 1010.5
20260510004516 27 243 0.0 0.0 0.00 0.00 0.00 66 1010.4
20260510004015 27 241 0.0 0.0 0.00 0.00 0.00 66 1010.4
20260510003511 27 240 0.0 0.0 0.00 0.00 0.00 67 1010.2
20260510003006 27 249 0.0 0.0 0.00 0.00 0.00 69 1010.3
20260510002502 27 249 0.0 0.0 0.00 0.00 0.00 67 1010.0
20260510001959 27 249 0.0 0.0 0.00 0.00 0.00 67 1010.1
20260510001456 27 240 0.0 3.2 0.00 0.00 0.00 68 1010.1
20260510000954 27 250 0.0 0.0 0.00 0.00 0.00 68 1010.2
20260510000449 28 246 3.2 6.4 0.00 0.00 0.00 67 1010.2
20260509235946 28 242 3.2 3.2 0.00 0.00 0.00 65 1010.2
20260509235443 28 237 0.0 3.2 0.00 0.00 0.00 64 1010.4
20260509234940 29 241 0.0 6.4 0.00 0.00 0.00 59 1010.4
20260509234436 29 240 3.2 6.4 0.00 0.00 0.00 56 1010.0
20260509233934 30 183 4.8 9.7 0.00 0.00 0.00 55 1010.0
20260509233432 30 139 4.8 9.7 0.00 0.00 0.00 53 1010.0
20260509232927 31 197 3.2 6.4 0.00 0.00 0.00 55 1010.2
20260509232426 31 221 6.4 6.4 0.00 0.00 0.00 54 1010.1
20260509231921 31 244 0.0 3.2 0.00 0.00 0.00 54 1009.9
20260509231418 31 248 0.0 0.0 0.00 0.00 0.00 54 1009.9
20260509230916 32 251 0.0 3.2 0.00 0.00 0.00 50 1010.2
20260509230413 32 252 0.0 3.2 0.00 0.00 0.00 49 1010.0
20260509225908 32 253 1.6 3.2 0.00 0.00 0.00 50 1010.1
20260509225405 32 260 3.2 3.2 0.00 0.00 0.00 49 1010.0
20260509224901 32 244 0.0 9.7 0.00 0.00 0.00 50 1010.0
20260509224351 32 250 1.6 6.4 0.00 0.00 0.00 49 1010.1
20260509223849 32 248 4.8 9.7 0.00 0.00 0.00 49 1010.1
20260509223345 31 256 0.0 0.0 0.00 0.00 0.00 52 1009.8
20260509222843 31 246 6.4 12.9 0.00 0.00 0.00 51 1009.9
20260509222342 32 235 3.2 6.4 0.00 0.00 0.00 50 1009.9
20260509221838 31 249 6.4 6.4 0.00 0.00 0.00 49 1009.8
20260509221337 31 250 0.0 6.4 0.00 0.00 0.00 52 1010.0
20260509220836 32 208 3.2 6.4 0.00 0.00 0.00 52 1010.0
20260509220333 32 253 0.0 3.2 0.00 0.00 0.00 52 1010.0
20260509215828 32 235 0.0 3.2 0.00 0.00 0.00 53 1010.0
20260509215325 31 255 3.2 9.7 0.00 0.00 0.00 53 1010.1
20260509214822 32 253 4.8 6.4 0.00 0.00 0.00 49 1010.1
20260509214319 32 249 0.0 3.2 0.00 0.00 0.00 48 1010.2
20260509213817 32 257 3.2 9.7 0.00 0.00 0.00 50 1010.1
20260509213312 34 251 3.2 6.4 0.00 0.00 0.00 44 1010.2
20260509212810 33 257 0.0 6.4 0.00 0.00 0.00 47 1010.2
20260509212307 32 273 0.0 3.2 0.00 0.00 0.00 50 1010.2
20260509211802 31 261 0.0 9.7 0.00 0.00 0.00 51 1010.3
20260509211259 32 227 3.2 3.2 0.00 0.00 0.00 51 1010.1
20260509210755 32 250 3.2 6.4 0.00 0.00 0.00 51 1010.3
20260509210253 31 259 0.0 0.0 0.00 0.00 0.00 52 1010.4
20260509205753 32 262 3.2 6.4 0.00 0.00 0.00 51 1010.6
20260509205247 31 253 0.0 9.7 0.00 0.00 0.00 53 1010.7
20260509204743 32 243 4.8 16.1 0.00 0.00 0.00 51 1010.7
20260509204240 32 272 3.2 6.4 0.00 0.00 0.00 50 1010.6
20260509203736 32 244 8.0 12.9 0.00 0.00 0.00 49 1010.8
20260509203234 31 251 1.6 12.9 0.00 0.00 0.00 54 1010.8
20260509202730 30 252 0.0 3.2 0.00 0.00 0.00 56 1011.0
20260509202226 31 259 6.4 9.7 0.00 0.00 0.00 55 1011.1
20260509201721 31 260 3.2 3.2 0.00 0.00 0.00 53 1011.2
20260509201218 31 252 3.2 12.9 0.00 0.00 0.00 53 1011.2
20260509200714 31 229 6.4 9.7 0.00 0.00 0.00 54 1011.3
20260509200209 31 229 4.8 6.4 0.00 0.00 0.00 57 1011.5
20260509195705 31 261 0.0 3.2 0.00 0.00 0.00 59 1011.6
20260509195201 31 266 0.0 6.4 0.00 0.00 0.00 57 1011.7
20260509194700 30 253 3.2 3.2 0.00 0.00 0.00 59 1011.7
20260509194158 31 244 0.0 3.2 0.00 0.00 0.00 57 1011.9
20260509193654 31 243 4.8 9.7 0.00 0.00 0.00 57 1012.0
20260509193149 31 255 1.6 3.2 0.00 0.00 0.00 56 1011.9
20260509192646 30 218 3.2 3.2 0.00 0.00 0.00 64 1012.0
20260509192141 30 250 3.2 6.4 0.00 0.00 0.00 63 1012.1
20260509191641 30 244 0.0 6.4 0.00 0.00 0.00 60 1012.1
20260509191138 30 257 3.2 12.9 0.00 0.00 0.00 60 1012.1
20260509190634 30 253 0.0 6.4 0.00 0.00 0.00 63 1012.1
20260509190132 30 255 3.2 6.4 0.00 0.00 0.00 60 1012.2
20260509185629 30 264 3.2 9.7 0.00 0.00 0.00 62 1012.3
20260509185125 30 245 3.2 9.7 0.00 0.00 0.00 60 1012.3
20260509184623 30 253 4.8 6.4 0.00 0.00 0.00 62 1012.4
20260509184120 30 235 3.2 9.7 0.00 0.00 0.00 59 1012.3
20260509183616 30 251 3.2 6.4 0.00 0.00 0.00 63 1012.7
20260509183111 30 261 1.6 3.2 0.00 0.00 0.00 62 1012.6
20260509182608 29 250 0.0 12.9 0.00 0.00 0.00 66 1012.6
20260509182105 29 260 9.7 16.1 0.00 0.00 0.00 66 1012.6
20260509181603 29 258 0.0 9.7 0.00 0.00 0.00 66 1012.9
20260509181100 28 248 0.0 9.7 0.00 0.00 0.00 65 1012.8
20260509180555 28 279 6.4 6.4 0.00 0.00 0.00 66 1012.9
20260509180053 28 258 0.0 9.7 0.00 0.00 0.00 67 1013.0
20260509175548 30 254 8.0 16.1 0.00 0.00 0.00 62 1012.8
20260509175046 30 253 1.6 6.4 0.00 0.00 0.00 66 1012.9
20260509174542 29 258 0.0 3.2 0.00 0.00 0.00 66 1013.1
20260509174037 28 244 3.2 12.9 0.00 0.00 0.00 68 1013.0
20260509173532 28 254 0.0 6.4 0.00 0.00 0.00 71 1013.1
20260509173028 28 257 4.8 12.9 0.00 0.00 0.00 71 1013.1
20260509172526 28 241 11.3 12.9 0.00 0.00 0.00 70 1013.3
20260509172021 28 212 4.8 9.7 0.00 0.00 0.00 72 1013.2
20260509171517 27 261 0.0 0.0 0.00 0.00 0.00 72 1013.3
20260509171014 27 254 1.6 6.4 0.00 0.00 0.00 73 1013.1
20260509170510 27 259 0.0 3.2 0.00 0.00 0.00 75 1013.3
20260509170006 26 240 3.2 16.1 0.00 0.00 0.00 77 1013.1
20260509165504 26 248 6.4 6.4 0.00 0.00 0.00 80 1013.2
20260509165000 27 239 0.0 0.0 0.00 0.00 0.00 79 1013.3
20260509164456 26 258 1.6 6.4 0.00 0.00 0.00 80 1013.4
20260509163952 26 251 3.2 6.4 0.00 0.00 0.00 80 1013.3
20260509163450 26 244 4.8 9.7 0.00 0.00 0.00 80 1013.4
20260509162949 26 264 0.0 0.0 0.00 0.00 0.00 80 1013.6
20260509162448 26 252 0.0 0.0 0.00 0.00 0.00 81 1013.7
20260509161944 26 246 0.0 9.7 0.00 0.00 0.00 81 1013.6
20260509161440 26 257 0.0 3.2 0.00 0.00 0.00 80 1013.5
20260509160935 26 179 3.2 6.4 0.00 0.00 0.00 81 1013.5
20260509160432 26 241 3.2 9.7 0.00 0.00 0.00 85 1013.3
20260509155927 25 205 6.4 9.7 0.00 0.00 0.00 85 1013.4
20260509155424 25 233 3.2 9.7 0.00 0.00 0.00 86 1013.3
20260509154920 25 239 1.6 3.2 0.00 0.00 0.00 88 1013.3
20260509154417 25 235 1.6 9.7 0.00 0.00 0.00 88 1013.5
20260509153914 24 229 3.2 9.7 0.00 0.00 0.00 88 1013.5
20260509153411 24 252 8.0 9.7 0.00 0.00 0.00 89 1013.4
20260509152908 24 154 6.4 16.1 0.00 0.00 0.00 90 1013.3
20260509152403 23 254 4.8 9.7 0.00 0.00 0.00 91 1013.7
20260509151901 23 245 0.0 3.2 0.00 0.00 0.00 93 1013.8
20260509151356 22 235 1.6 3.2 0.00 0.00 0.00 95 1013.4
20260509150855 22 253 0.0 0.0 0.00 0.00 0.00 96 1014.0
20260509150353 22 254 1.6 3.2 0.00 0.00 0.00 96 1013.8
20260509145850 22 254 0.0 0.0 0.00 0.00 0.00 98 1014.0
20260509145350 22 254 0.0 0.0 0.00 0.00 0.00 99 1013.9
20260509144846 22 254 0.0 0.0 0.00 0.00 0.00 99 1013.8
20260509144343 22 254 0.0 0.0 0.00 0.00 0.00 99 1013.8
20260509143840 21 254 0.0 0.0 0.00 0.00 0.00 99 1013.9
20260509143338 21 254 0.0 0.0 0.00 0.00 0.00 99 1014.0
20260509142834 21 254 0.0 0.0 0.00 0.00 0.00 99 1013.7
20260509142330 21 254 0.0 0.0 0.00 0.00 0.00 99 1013.5
20260509141826 21 254 0.0 0.0 0.00 0.00 0.00 99 1013.3
20260509141327 21 254 0.0 0.0 0.00 0.00 0.00 99 1013.2
20260509140819 21 254 0.0 0.0 0.00 0.00 0.00 99 1013.2
20260509140317 21 254 0.0 0.0 0.00 0.00 0.00 99 1013.1
20260509135815 21 254 0.0 0.0 0.00 0.00 0.00 99 1013.1
20260509135312 21 253 0.0 0.0 0.00 0.00 0.00 99 1013.3
20260509134809 21 253 0.0 0.0 0.00 0.00 0.00 99 1013.2
20260509134306 21 253 0.0 0.0 0.00 0.00 0.00 99 1013.2
20260509133803 21 253 0.0 0.0 0.00 0.00 0.00 99 1013.2
20260509133259 21 253 0.0 0.0 0.00 0.00 0.00 99 1013.3
20260509132758 21 253 0.0 0.0 0.00 0.00 0.00 99 1013.2
20260509132257 21 253 0.0 0.0 0.00 0.00 0.00 99 1013.3
20260509131753 21 254 0.0 0.0 0.00 0.00 0.00 99 1013.4
20260509131250 21 254 0.0 0.0 0.00 0.00 0.00 99 1013.3
20260509130746 21 254 0.0 0.0 0.00 0.00 0.00 99 1013.3
20260509130242 21 254 0.0 0.0 0.00 0.00 0.00 99 1013.2
20260509125738 21 254 0.0 0.0 0.00 0.00 0.00 99 1013.0
20260509125236 21 254 0.0 0.0 0.00 0.00 0.00 99 1013.0
20260509124732 21 254 0.0 0.0 0.00 0.00 0.00 99 1013.2
20260509124228 21 254 0.0 0.0 0.00 0.00 0.00 99 1013.0
20260509123727 21 254 0.0 0.0 0.00 0.00 0.00 99 1013.3
20260509123224 21 249 0.0 0.0 0.00 0.00 0.00 99 1013.3
20260509122719 21 249 0.0 0.0 0.00 0.00 0.00 99 1013.2
20260509122216 21 250 0.0 0.0 0.00 0.00 0.00 99 1013.3
20260509121713 21 249 0.0 0.0 0.00 0.00 0.00 99 1013.4
20260509121211 21 249 0.0 0.0 0.00 0.00 0.00 99 1013.5
20260509120709 21 249 0.0 0.0 0.00 0.00 0.00 99 1013.1
20260509120206 21 249 0.0 0.0 0.00 0.00 0.00 99 1013.0
20260509115704 21 251 0.0 0.0 0.00 0.00 0.00 99 1012.9
20260509115201 21 252 0.0 0.0 0.00 0.00 0.00 99 1013.2
20260509114659 21 236 0.0 0.0 0.00 0.00 0.00 99 1013.4
20260509114158 21 235 0.0 0.0 0.00 0.00 0.00 99 1013.1
20260509113656 21 235 0.0 0.0 0.00 0.00 0.00 99 1013.1
20260509113152 21 235 0.0 0.0 0.00 0.00 0.00 99 1013.2
20260509112649 21 235 0.0 0.0 0.00 0.00 0.00 99 1013.0
20260509112146 21 235 0.0 0.0 0.00 0.00 0.00 99 1013.0
20260509111643 21 235 0.0 0.0 0.00 0.00 0.00 99 1012.9
20260509111140 21 235 0.0 0.0 0.00 0.00 0.00 99 1012.7
20260509110637 21 235 0.0 0.0 0.00 0.00 0.00 99 1012.8
20260509110134 21 235 0.0 0.0 0.00 0.00 0.00 99 1012.4
20260509105633 21 235 0.0 0.0 0.00 0.00 0.00 99 1012.5
20260509105130 21 235 0.0 0.0 0.00 0.00 0.00 99 1012.9
20260509104627 21 235 0.0 0.0 0.00 0.00 0.00 99 1012.6
20260509104123 21 235 0.0 0.0 0.00 0.00 0.00 99 1012.9
20260509103621 21 236 0.0 0.0 0.00 0.00 0.00 99 1012.7
20260509103119 21 236 0.0 0.0 0.00 0.00 0.00 99 1012.7
20260509102616 21 236 0.0 0.0 0.00 0.00 0.00 99 1012.7
20260509102113 21 236 0.0 0.0 0.00 0.00 0.00 99 1012.6
20260509101609 21 236 0.0 0.0 0.00 0.00 0.00 99 1012.6
20260509101106 21 236 0.0 0.0 0.00 0.00 0.00 99 1012.6
20260509100603 21 236 0.0 0.0 0.00 0.00 0.00 99 1012.4
20260509100101 21 236 0.0 0.0 0.00 0.00 0.00 99 1012.5
20260509095557 21 236 0.0 0.0 0.00 0.00 0.00 99 1012.4